Location: Arrien
(43.3167°N, 0.1500°W)
Time: 22:06:44
(UTC+00:00)

ARGOS - Pass Details

Date: 15 October 2021
Orbit: 820 x 835 km, 98.4° (Epoch: 04 December)

Event Time Altitude Azimuth Distance (km) Brightness Sun altitude
Rises 17:46:53 0° 145° (SE) 3,350 6.0 -6.1°
Reaches altitude 10° 17:49:19 10° 138° (SE) 2,424 5.3 -6.6°
Maximum altitude 17:54:21 43° 69° (ENE) 1,158 3.5 -7.5°
Drops below altitude 10° 17:59:26 10° 360° (N) 2,448 5.6 -8.4°
Sets 18:01:53 0° 353° (N) 3,388 6.4 -8.8°
